TimeEST,TemperatureF,Dew PointF,Humidity,Sea Level PressureIn,VisibilityMPH,Wind Direction,Wind SpeedMPH,Gust SpeedMPH,PrecipitationIn,Events,Conditions,WindDirDegrees,DateUTC
12:45 AM,33.8,28.4,81,29.73,10.0,WSW,11.5,23.0,0.00,,Mostly Cloudy,250,2013-02-28 05:45:00
12:53 AM,34.0,28.0,79,29.75,10.0,WSW,10.4,-,0.00,,Mostly Cloudy,250,2013-02-28 05:53:00
1:39 AM,33.8,28.4,81,29.73,10.0,SW,9.2,-,N/A,,Overcast,230,2013-02-28 06:39:00
1:53 AM,34.0,28.9,82,29.74,10.0,SW,11.5,-,N/A,,Overcast,230,2013-02-28 06:53:00
2:53 AM,34.0,28.9,82,29.74,10.0,SW,10.4,-,0.00,,Overcast,230,2013-02-28 07:53:00
3:53 AM,33.1,28.9,85,29.73,3.0,SW,9.2,-,0.00,Snow,Light Snow,230,2013-02-28 08:53:00
4:07 AM,33.8,28.4,81,29.73,4.0,WSW,12.7,-,0.00,Snow,Light Snow,240,2013-02-28 09:07:00
4:53 AM,33.1,28.9,85,29.74,8.0,WSW,12.7,-,0.00,Snow,Light Snow,240,2013-02-28 09:53:00
5:53 AM,33.1,28.9,85,29.76,6.0,WSW,10.4,-,0.00,Snow,Light Snow,240,2013-02-28 10:53:00
6:53 AM,33.1,28.9,85,29.76,8.0,SW,10.4,19.6,0.00,Snow,Light Snow,230,2013-02-28 11:53:00
7:53 AM,33.1,30.0,89,29.78,6.0,WSW,12.7,-,0.00,,Overcast,240,2013-02-28 12:53:00
8:18 AM,33.8,30.2,87,29.77,8.0,WSW,15.0,20.7,N/A,,Overcast,240,2013-02-28 13:18:00
8:53 AM,33.8,30.2,87,29.78,8.0,WSW,15.0,-,N/A,,Overcast,250,2013-02-28 13:53:00
9:53 AM,34.0,30.9,89,29.81,10.0,WSW,13.8,-,N/A,,Overcast,250,2013-02-28 14:53:00
10:53 AM,35.1,32.0,89,29.83,10.0,West,12.7,-,N/A,,Overcast,270,2013-02-28 15:53:00
11:53 AM,36.0,32.0,86,29.84,10.0,West,11.5,-,N/A,,Overcast,270,2013-02-28 16:53:00
12:53 PM,36.0,32.0,86,29.85,10.0,West,12.7,-,N/A,,Overcast,270,2013-02-28 17:53:00
1:53 PM,37.0,32.0,82,29.85,10.0,WNW,8.1,16.1,N/A,,Overcast,300,2013-02-28 18:53:00
2:53 PM,37.0,32.0,82,29.86,10.0,West,9.2,19.6,N/A,,Overcast,270,2013-02-28 19:53:00
3:53 PM,37.4,32.0,81,29.87,10.0,West,12.7,-,N/A,,Overcast,280,2013-02-28 20:53:00
4:53 PM,37.0,32.0,82,29.90,10.0,West,6.9,17.3,N/A,,Overcast,280,2013-02-28 21:53:00
5:53 PM,37.9,32.0,79,29.93,10.0,West,3.5,-,N/A,,Overcast,280,2013-02-28 22:53:00
6:53 PM,37.9,32.0,79,29.95,10.0,WNW,4.6,-,N/A,,Overcast,290,2013-02-28 23:53:00
7:53 PM,37.9,32.0,79,29.96,10.0,Calm,Calm,-,N/A,,Overcast,0,2013-03-01 00:53:00
8:53 PM,37.9,32.0,79,29.96,10.0,West,4.6,-,N/A,,Overcast,280,2013-03-01 01:53:00
9:53 PM,36.0,33.1,89,29.97,9.0,WNW,6.9,-,0.00,Rain,Light Rain,290,2013-03-01 02:53:00
10:53 PM,35.6,33.8,93,29.96,10.0,WNW,4.6,-,N/A,,Overcast,300,2013-03-01 03:53:00
11:53 PM,37.0,33.1,86,29.98,10.0,WNW,4.6,-,N/A,,Overcast,300,2013-03-01 04:53:00